Location: Góry Miechowskie
(50.3599°N, 20.1803°E)
Time: 07:35:15
(UTC+00:00)

Courier 1B - Pass Details

Date: 22 September 2024
Orbit: 962 x 1208 km, 28.3° (Epoch: 12 October)

Event Time Altitude Azimuth Distance (km) Brightness Sun altitude
Rises 12:35:58 0° 232° (SW) 3,777 11.6 33.1°
Reaches altitude 10° 12:41:44 10° 195° (SSW) 2,899 11.1 32.6°
Maximum altitude 12:42:51 10° 185° (S) 2,883 10.9 32.4°
Drops below altitude 10° 12:43:59 10° 176° (S) 2,928 10.8 32.3°
Sets 12:50:00 0° 139° (SE) 3,964 10.8 31.7°
